Flag for USA

Past Weather in 36°05'40"N, 79°59'27"W, USA — Yesterday and Last 2 Weeks

Now
71 °F

Light rain. Passing clouds.


Feels Like: 64 °F
Forecast: 89 / 71 °F
Wind: 5 mph from South

Location: Smith Reynolds Airport

Current Time: Jul 10, 2020 at 10:55:52 pm

Latest Report: Jul 10, 2020 at 9:54 pm


Visibility: 10 mi

Pressure: 29.86 "Hg

Humidity: 100%

Dew Point: 71 °F

Location of 36°05'40"N, 79°59'27"WLocation

Past Weather in 36°05'40"N, 79°59'27"W — Graph

°F

36°05'40"N, 79°59'27"W Temperature Yesterday

Maximum temperature yesterday: 85 °F (at 3:54 pm)
Minimum temperature yesterday: 70 °F (at 3:54 am)
Average temperature yesterday: 76 °F

High & Low Weather Summary for the Past Weeks

 TemperatureHumidityPressure
High93 °F (Jul 4, 3:54 pm)100% (Jul 5, 11:54 pm)30.15 "Hg (Jul 5, 11:54 pm)
Low64 °F (Jun 26, 6:54 am)34% (Jul 3, 4:54 pm)29.80 "Hg (Jul 10, 5:54 pm)
Average78 °F74%29.95 "Hg
* Reported Jun 25 8:54 pm — Jul 10 8:54 pm, 36°05'40"N, 79°59'27"W. Weather by CustomWeather, © 2020

Note: Actual official high and low records may vary slightly from our data, if they occured in-between our weather recording intervals... More about our weather records

36°05'40"N, 79°59'27"W Weather History for the Previous 24 Hours

Scroll right to see more
 ConditionsComfort  
Time TempWeatherWind HumidityBarometerVisibility
8:54 pm
Fri, Jul 10
71 °FFog.3 mph96%29.84 "Hg4 mi
7:54 pm76 °FLight rain. Broken clouds.20 mph85%29.86 "Hg10 mi
7:16 pm83 °FThunderstorms. Scattered clouds.9 mph65%29.87 "Hg10 mi
7:11 pm83 °FPassing clouds.9 mph63%29.87 "Hg10 mi
6:54 pm83 °FThundershowers. Passing clouds.9 mph65%29.82 "Hg10 mi
6:42 pm85 °FThundershowers. Passing clouds.8 mph63%29.85 "Hg10 mi
5:54 pm89 °FPassing clouds.6 mph55%29.80 "Hg10 mi
4:54 pm88 °FSunny.6 mph61%29.81 "Hg10 mi
3:54 pm90 °FScattered clouds.5 mph52%29.82 "Hg10 mi
2:54 pm89 °FPassing clouds.N/A55%29.83 "Hg10 mi
1:54 pm88 °FBroken clouds.6 mph57%29.87 "Hg10 mi
12:54 pm86 °FScattered clouds.6 mph63%29.88 "Hg10 mi
11:54 am84 °FScattered clouds.5 mph67%29.90 "Hg10 mi
10:54 am83 °FPassing clouds.6 mph72%29.91 "Hg10 mi
9:54 am81 °FSunny.5 mph77%29.92 "Hg10 mi
8:54 am77 °FOvercast.3 mph85%29.93 "Hg10 mi
7:54 am75 °FScattered clouds.3 mph94%29.93 "Hg10 mi
6:54 am75 °FSunny.No wind90%29.92 "Hg10 mi
5:54 am74 °FMostly cloudy.No wind94%29.91 "Hg10 mi
4:54 am74 °FPassing clouds.No wind97%29.90 "Hg10 mi
3:54 am74 °FClear.No wind97%29.89 "Hg10 mi
2:54 am74 °FClear.No wind97%29.89 "Hg10 mi
1:54 am77 °FOvercast.No wind88%29.91 "Hg10 mi
12:54 am77 °FMostly cloudy.3 mph88%29.92 "Hg10 mi
11:54 pm
Thu, Jul 9
77 °FPassing clouds.3 mph88%29.92 "Hg10 mi
10:54 pm76 °FClear.No wind91%29.90 "Hg10 mi
Weather by CustomWeather, © 2020

See weather overview